Regional Weather Roundup
Issued by NWS Boston, MA

Home | Current Version | Previous Version | Text Only | Print | Product List | Glossary On
Versions: 1 2 3 4 5 6 7 8 9 10 11 12 13 14 15 16 17 18 19 20 21 22 23 24 25 26 27 28 29 30 31 32 33 34 35 36 37 38 39 40 41 42 43 44 45 46 47 48 49 50
000
ASUS41 KBOX 191110
RWRBOX

REGIONAL WEATHER ROUNDUP
NATIONAL WEATHER SERVICE TAUNTON MA
700 AM EDT THU OCT 19 2017

NOTE:  "FAIR" INDICATES FEW OR NO CLOUDS BELOW 12,000 FEET WITH NO
SIGNIFICANT WEATHER AND/OR OBSTRUCTIONS TO VISIBILITY.

MAZALL-191200-
EASTERN MASSACHUSETTS

CITY           SKY/WX    TMP DP  RH WIND       PRES   REMARKS
BOSTON         PTCLDY    53  51  93 SW8       30.22F
BEVERLY        CLEAR     43  42  97 CALM      30.21F
LAWRENCE       CLEAR     47  43  86 SW5       30.23F
BEDFORD        CLEAR     39  36  89 CALM      30.21F
BLUE HILL        N/A     52  50  93 SW10      30.22S
NORWOOD        FOG       39  37  92 CALM      30.23S VSB 1/2
MARSHFIELD     CLEAR     48  48 100 SW5       30.23F FOG
PLYMOUTH       FOG       51  49  92 CALM      30.25S VSB 1/4
TAUNTON        FOG       39  37  92 CALM      30.24S VSB 3/4
NEW BEDFORD    FOG       43  42  97 CALM      30.24S VSB 1/4
$$

MAZALL-191200-
CAPE COD AND THE ISLANDS

CITY           SKY/WX    TMP DP  RH WIND       PRES   REMARKS
FALMOUTH       FOG       50  50 100 CALM      30.26S VSB<1/4
HYANNIS        PTCLDY    48  47  96 CALM      30.25S FOG
CHATHAM        MOCLDY    58  58 100 S3        30.27S FOG
PROVINCETOWN   CLEAR     57  56  96 S8        30.24F
NANTUCKET      CLEAR     59  59 100 S8        30.27S
MARTHAS VNYRD  FOG       44  44 100 S5        30.26S VSB<1/4
$$

MAZALL-191200-
CENTRAL AND WESTERN MASSACHUSETTS

CITY           SKY/WX    TMP DP  RH WIND       PRES   REMARKS
WORCESTER      CLEAR     47  42  83 W7        30.21F
FITCHBURG      CLEAR     41  40  96 CALM      30.22F
ORANGE         FOG       37  37 100 CALM      30.22F VSB 1
SPRINGFIELD    MOCLDY    39  38  98 CALM      30.22S
WESTFIELD      CLEAR     37  37 100 CALM      30.22F FOG
NORTH ADAMS    CLEAR     37  36  96 CALM      30.20F
PITTSFIELD     FOG       38  36  92 CALM      30.20F VSB 1/2
$$

RIZALL-191200-
RHODE ISLAND

CITY           SKY/WX    TMP DP  RH WIND       PRES   REMARKS
PROVIDENCE     NOT AVBL
NEWPORT        CLEAR     55  55 100 CALM      30.24F FOG
BLOCK ISLAND   CLEAR     59  56  89 SW9       30.26F
SMITHFIELD     CLEAR     48  48 100 SW3       30.24S FOG
WESTERLY       CLEAR     43  41  93 CALM      30.26S
$$

CTZALL-191200-
CONNECTICUT

CITY           SKY/WX    TMP DP  RH WIND       PRES   REMARKS
BRADLEY INTL   PTCLDY    41  40  96 CALM      30.23S
HARTFORD       CLEAR     45  44  97 CALM      30.23F
BRIDGEPORT     CLEAR     50  47  89 CALM      30.24F
DANBURY        PTCLDY    41  39  93 CALM      30.25F
GROTON         FOG       45  44  97 CALM      30.24F VSB 1
NEW HAVEN      CLEAR     44  42  93 CALM      30.25S
CHESTER        FAIR      54  52  94 CALM      30.24F FOG
MERIDEN        MOCLDY    40  40 100 CALM      30.24F
WILLIMANTIC    FOG       41  41 100 CALM      30.25F VSB 1/4
OXFORD         CLEAR     46  45  96 CALM      30.24F
$$

MEZ002-015-021-024-NHZ003-005-008-011-012-014-VTZ005-008-191200-
NORTHERN NEW ENGLAND

CITY           SKY/WX    TMP DP  RH WIND       PRES   REMARKS
PORTLAND ME    PTCLDY    40  38  93 CALM      30.19F
BANGOR ME      PTCLDY    39  39 100 S3        30.18F
CONCORD NH     CLOUDY    33  31  92 CALM      30.21F
MANCHESTER NH  CLEAR     41  39  93 CALM      30.20S
NASHUA NH      CLEAR     38  36  92 W3        30.22S
PORTSMOUTH NH  PTCLDY    42  42  99 CALM      30.19F
JAFFREY NH     PTCLDY    39  39 100 S6        30.21F FOG
KEENE NH       FOG       35  34  96 CALM      30.22F VSB 1/4
BURLINGTON VT  PTCLDY    57  46  66 S12       30.10F
MT. WASHINGTON PTCLDY    41  34  75 SW33G40     N/A  WCI  29
$$

NYZ052-076-191200-
EASTERN NEW YORK

CITY           SKY/WX    TMP DP  RH WIND       PRES   REMARKS
ALBANY         PTCLDY    49  45  86 S7        30.19F
NEW YORK CITY  PTCLDY    59  46  62 SW7       30.24F
$$

ANZALL-191200-
MARINE OBSERVATIONS

STATION/POSITION TIME  TEMP    WIND        PRES    VSBY  WAVE
                       AIR SEA DIR/SP/G                  HT/PER
                 (UTC) (F)     (DEG/KT/KT) (MB)    (MI)  (FT/S)
BOSTON BUOY      1050   57 58  190/ 10/ 10 1022.9F         1/10
BUZZARDS BAY     1000   62     210/ 13/ 14 1024.7F
NANTUCKET SOUND  1050   61 61  210/ 10/ 12 1024.6F         1
MASS BAY-STELLWA 1004   58 60  230/ 12/ 14 1022.8F         1/ 3
ISLE OF SHOALS   1000   54     230/  9/ 10 1022.8F
S OF BLOCK IS    NOT AVBL
$$

......................KEY.........................
  SKY/WX - SKY CONDITION/PRESENT WEATHER
  TMP    - TEMPERATURE IN FAHRENHEIT
  DWPT   - DEWPOINT IN FAHRENHEIT
  RH     - RELATIVE HUMIDITY IN PERCENT
  WIND   - DIRECTION AND SPEED IN MPH
  PRES   - MEAN SEA LEVEL PRESSURE IN INCHES OF HG
  WCI    - WIND CHILL INDEX
  VSB    - VISIBILITY IN MILES
  HX     - HEAT INDEX
  TC     - TEMPERATURE IN CELSIUS
  VRB    - VARIABLE WIND DIRECTION
  N/A    - NOT AVAILABLE



USA.gov is the U.S. government's official web portal to all federal, state and local government web resources and services.